Location: Fazenda Monte Alegre
(4.8500°S, 38.0333°W)
Time: 15:05:01
(UTC+00:00)

ARIANE 5 DEB (SYLDA) - Pass Details

Date: 24 September 2020
Orbit: 187 x 6395 km, 2.2° (Epoch: 20 October)

Event Time Altitude Azimuth Distance (km) Brightness Sun altitude
Rises 21:16:49 0° 276° (W) 2,537 7.6 -13.1°
Reaches altitude 10° 21:19:41 10° 285° (WNW) 1,165 5.2 -13.8°
Maximum altitude 21:21:49 34° 355° (N) 380 1.5 -14.4°
Enters shadow 21:21:55 33° 5° (N) 379 1.4 -14.4°
